Tracking 19562 objects as of 23-Mar-2019
HD Live streaming from Space Station
objects crossing your sky now

JILIN-01-08

Track JILIN-01-08 now!
10-day predictions


NORAD ID: 43160
Int'l Code: 2018-008F
Perigee: 538.5 km
Apogee: 549.9 km
Inclination: 97.5 °
Period: 95.4 minutes
Semi major axis: 6915 km
RCS: Unknown
Launch date: January 19, 2018
Source: People's Republic of China (PRC)
Launch site: Jiuquan Satellite Launch Center, China (JSC)
aabbcc
Your satellite tracking list
Your tracking list is empty




NASA's NSSDC Master Catalog

Two Line Element Set (TLE):
1 43160U 18008F   19081.80717911  .00000575  00000-0  39503-4 0  9995
2 43160  97.4929 155.3602 0008280 276.2685 207.3047 15.09722947 64494
Source of the keplerian elements: AFSPC